Terminal Aerodrome Forecast
Issued by NWS Charleston, SC

Home | Current Version | Previous Version | Text Only | Print | Product List | Glossary On
Versions: 1 2 3 4 5 6 7 8 9 10 11 12
000
FTUS42 KCHS 152326
TAFCHS
TAF
KCHS 152326Z 1600/1624 29008KT P6SM OVC150
     FM160800 VRB05KT P6SM SKC=

USA.gov is the U.S. government's official web portal to all federal, state and local government web resources and services.